Regional Weather Roundup
Issued by NWS

Home | Current Version | Previous Version | Graphics & Text | Print | Product List | Glossary On
Versions: 1 2 3 4 5 6 7 8 9 10 11 12 13 14 15 16 17 18 19 20 21 22 23 24 25 26 27 28 29 30 31 32 33 34 35 36 37 38 39 40 41 42 43 44 45 46 47 48 49 50
000
ASUS45 KCYS 311710
RWRWY

WYOMING REGIONAL WEATHER ROUNDUP
NATIONAL WEATHER SERVICE CHEYENNE WY
1100 AM MDT THU JUL 31 2014

NOTE:  "FAIR" INDICATES FEW OR NO CLOUDS BELOW 12,000 FEET
WITH NO SIGNIFICANT WEATHER AND/OR OBSTRUCTIONS TO VISIBILITY.

WYZ001-311800-
YELLOWSTONE NATIONAL PARK

CITY           SKY/WX    TMP DP  RH WIND       PRES   REMARKS
LK YELLOWSTONE   N/A     60  47  61 E6        30.46F
W YELLOWSTONE  NOT AVBL

$$
WYZ002>013-054>058-071-098>099-311800-
NORTHERN WYOMING

CITY           SKY/WX    TMP DP  RH WIND       PRES   REMARKS
JACKSON        SUNNY     64  41  42 CALM      30.38F
CODY           NOT AVBL
GREYBULL       SUNNY     80  40  23 VRB6      30.18F
WORLAND        SUNNY     80  43  26 VRB3      30.20F
SHERIDAN       SUNNY     84  42  22 E5        30.18S
BUFFALO        SUNNY     80  37  21 S15       30.26F
GILLETTE       SUNNY     80  44  27 SW8       30.22F
HULETT         FAIR      75  50  41 MISG      30.24
NEWCASTLE      FAIR      77  41  27 MISG      30.24

$$
WYZ014>020-022>026-101>103-311800-
CENTRAL WYOMING

CITY           SKY/WX    TMP DP  RH WIND       PRES   REMARKS
BIG PINEY      SUNNY     66  45  46 S3        30.41F
PINEDALE       SUNNY     66  39  37 CALM      30.42S
DUBOIS         FAIR      68  37  32 E5        30.39S
LANDER         SUNNY     76  42  29 SE6       30.29F
RIVERTON       SUNNY     71  46  40 NE6       30.31S
CASPER         SUNNY     75  39  27 SE3       30.30S
DOUGLAS        SUNNY     75  47  36 VRB5      30.29S

$$
WYZ021-027>030-104>119-311800-
SOUTHERN WYOMING

CITY           SKY/WX    TMP DP  RH WIND       PRES   REMARKS
EVANSTON       MOSUNNY   64  47  53 NE13G18   30.39S
KEMMERER       SUNNY     68  43  40 E7        30.42R
FORT BRIDGER   FAIR      64  50  61 NE3       30.43S
ROCK SPRINGS   SUNNY     66  47  50 CALM      30.38S
DIXON          FAIR      68  48  49 CALM      30.35F
RAWLINS        SUNNY     68  46  45 E9        30.37S
SARATOGA       FAIR      64  43  45 CALM      30.39R
LARAMIE        SUNNY     64  47  53 CALM      30.39S
CHEYENNE       SUNNY     71  43  36 CALM      30.34R
TORRINGTON     SUNNY     77  51  40 SE7       30.23S
PINE BLUFFS    FAIR      73  45  35 CALM      30.29S

$$


USA.gov is the U.S. government's official web portal to all federal, state and local government web resources and services.